Printer-friendly version

IAU Minor Planet Center

Minor Planet Center

MPEC 2004-P50 : 2001 SD170

The following Minor Planet Electronic Circular may be linked-to from your own Web pages, but must not otherwise be redistributed electronically.


Read MPEC 2004-P49 Read MPEC 2004-P51


M.P.E.C. 2004-P50                                Issued 2004 Aug. 13, 17:05 UT

     The Minor Planet Electronic Circulars contain information on unusual
         minor planets and routine data on comets.  They are published
   on behalf of Commission 20 of the International Astronomical Union by the
          Minor Planet Center, Smithsonian Astrophysical Observatory,
                          Cambridge, MA 02138, U.S.A.

                  Supported in part by the Brinson Foundation
             Prepared using the Tamkin Foundation Computer Network

                              MPC@CFA.HARVARD.EDU
          URL http://cfa-www.harvard.edu/iau/mpc.html  ISSN 1523-6714

                                  2001 SD170

                           Revision to MPEC 2001-S36

Additional Observations:
     K01SH0D 2C2004 07 20.36206517 44 54.295+14 29 59.85         22.4 R EP050568
     K01SH0D 2C2004 07 20.36582917 44 54.071+14 29 58.84         21.5 R EP050568
     K01SH0D 2C2004 07 21.35319817 43 58.212+14 24 53.93         21.9 R EP050568
     K01SH0D 2C2004 07 21.35732917 43 57.969+14 24 52.59         21.9 R EP050568

Observer details:
568 Mauna Kea.  Observer F. Bernardi.  Measurers F. Bernardi, D. J. Tholen.
    2.2-m University of Hawaii reflector + CCD.

First and last observations above in comparison with prediction:
Residuals in seconds of arc, reference and Delta-T
040720 568 31.2- 11.4-    040721 568 31.1- 11.5-    MPO 57844   +0.042 day

Orbital elements:
2001 SD170
Epoch 2004 July 14.0 TT = JDT 2453200.5                 MPC
M 283.60652              (2000.0)            P               Q
n   0.28724514     Peri.  215.45275     +0.62202038     -0.77259050
a   2.2749276      Node   197.28842     +0.78008688     +0.62547500
e   0.5275438      Incl.   25.35436     +0.06749157     -0.10901811
P   3.43           H   18.2           G   0.15           U   1
Residuals in seconds of arc
010725 644  0.2+  0.7-    010923 046  0.3+  0.2+    010925 704  0.3-  0.3-
010725 644  0.2-  0.5-    010923 704  0.0   0.1-    010925 704  0.0   0.2+
010920 704  1.4-  1.0+    010923 704  0.3-  0.3+    010925 704  0.4-  0.0
010920 704  1.5-  1.0+    010923 704  0.2+  0.0     010925 644  0.3+  0.4-
010920 704  1.8-  1.1+    010923 704  0.3+  0.8-    010925 644  0.1+  0.3-
010920 704  1.4-  0.5+    010923 704  0.3-  0.1-    010925 644  0.3+  0.4-
010920 704  1.5-  0.4+    010923 704  0.2+  0.1-    010925 344  0.3+  0.6-
010921 946  0.0   1.2-    010923 704  0.2+  0.2+    010925 344  0.7+  1.0-
010921 946  0.2-  0.6-    010923 704  0.2-  0.3+    010926 670 (2.1+  0.2+)
010921 946  0.2-  0.3-    010923 704  0.0   0.5-    010926 670 (2.9+  1.6+)
010921 946  0.1+  0.1-    010923 704  0.3+  0.2-    010929 046  0.2-  0.2-
010921 511  1.0-  0.5+    010923 658  0.9+  0.2-    010929 046  0.5+  0.0
010921 511  0.8-  0.4+    010923 658  0.3+  0.1+    010929 046  0.1+  0.0
010921 511  0.3-  0.1+    010923 402  0.3+  0.0     010929 046  0.2-  0.4+
010921 511  0.1-  0.2+    010923 402  0.0   0.6-    010929 046  0.1+  0.0
010921 704  0.2+  0.1-    010923 402  0.2+  0.8-    011005 118  0.5+  0.3+
010921 918  0.5+  0.2-    010923 402  0.0   0.1-    011005 118  1.6+  0.1+
010921 704  0.1+  0.2+    010924 704  0.3+  0.1+    011011 118  0.6-  0.7+
010921 918  0.7+  0.2-    010924 704  0.3+  0.3+    011011 118  0.5+  0.4+
010921 704  0.4+  0.1-    010924 704  0.5+  0.2-    011011 118  0.4+  0.5+
010921 918  0.1-  0.1-    010924 704  0.3+  0.3+    011013 118  0.5-  0.2-
010921 918  0.1-  0.1-    010924 704  0.1+  0.2-    011013 118  0.4-  0.4+
010921 704  0.0   0.0     010924 704  0.5-  0.1+    011013 118  0.5-  0.1-
010921 704  0.0   0.1-    010924 704  0.5+  0.2+    011025 649  0.3-  0.6-
010921 704  0.1-  0.1-    010924 704  0.4+  0.3-    011025 649  0.1-  0.4+
010921 704  0.3+  0.4-    010924 704  0.1-  0.6+    011025 649  0.4-  0.2+
010921 704  0.1+  0.2-    010924 704  0.3+  0.2+    011025 649  0.1-  0.0
010921 704  0.1-  0.4-    010924 704  0.3+  0.3-    011103 413  0.3+  0.2+
010921 704  0.0   0.2-    010924 704  0.1-  0.5+    011103 413  0.7-  0.3-
010922 704  0.3+  0.5+    010924 704  0.0   0.2-    011203 413  0.1+  0.2+
010922 704  0.4+  0.2+    010924 658  0.1-  0.2+    011203 413  0.1-  0.0
010922 704  0.2-  0.2-    010924 658  0.0   0.1-    011203 413  0.2-  0.2+
010922 704  0.1-  0.1-    010924 658  0.1+  0.2-    020101 413  0.2+  0.0
010922 704  0.1+  0.5-    010925 918  0.2-  0.5-    020101 413  0.2+  0.1+
010922 611  0.1+  0.2-    010925 918  0.5-  0.5-    020101 413  0.0   0.1+
010922 611  0.2-  0.3-    010925 918  0.2+  0.4-    020211 413  0.0   0.4-
010922 611  0.1-  0.3+    010925 918  1.2+  0.8-    020211 413  0.1+  0.1+
010922 557  0.2+  0.2-    010925 704  0.2-  0.6+    020211 413  0.3+  0.1+
010922 557  0.1+  0.2-    010925 704  0.2-  0.2-    040720 568  0.0   0.0
010922 557  0.1-  0.2-    010925 704  0.3-  0.3+    040720 568  0.0   0.1+
010923 046  0.3+  1.1+    010925 704  0.2-  0.1+    040721 568  0.0   0.0
010923 046  0.0   0.8+    010925 704  0.1-  0.2+    040721 568  0.1-  0.0
010923 046  0.1+  1.5+    010925 704  0.3-  0.3+

Ephemeris:
2001 SD170               a,e,i = 2.27, 0.53, 25                  q = 1.0748
Date    TT    R. A. (2000) Decl.     Delta      r     Elong.  Phase     V
2004 08 13    17 29.40   +11 25.5    1.834    2.436   114.6    22.2    22.5
2004 08 23    17 27.74   +09 40.3    1.879    2.380   107.0    24.0    22.6
2004 09 02    17 29.13   +07 48.5    1.929    2.322    99.6    25.4    22.6
2004 09 12    17 33.44   +05 54.9    1.982    2.262    92.5    26.4    22.7
2004 09 22    17 40.50   +04 03.4    2.034    2.201    85.8    27.1    22.7
2004 10 02    17 50.10   +02 17.1    2.083    2.138    79.4    27.4    22.7
2004 10 12    18 02.04   +00 38.1    2.128    2.074    73.3    27.4    22.6
2004 10 22    18 16.17   -00 51.6    2.166    2.008    67.5    27.2    22.6
2004 11 01    18 32.32   -02 10.6    2.197    1.941    62.0    26.8    22.6

Kyle E. Smalley              (C) Copyright 2004 MPC           M.P.E.C. 2004-P50

Read MPEC 2004-P49 Read MPEC 2004-P51


Our Web policy. Index to the CBAT/MPC/ICQ pages.


Valid HTML 4.01!